Vorticity
2 6 6 6 7 6 5 6 6 5 6 7 7 5 4 6 6 5 5 5 6 6 6 5 5 4 5 5 5 6 5 4 2 2 6 3 4 3 4 2 3 7 2
13 6 7 5 8 8 7 4 6 6 6 8 7 5 6 5 6 4 7 6 7 4 6 6 6 6 5 4 5 5 6 6 7 7 6 5 1 0 4 6 4 5 6
6 1 8 5 5 5 5 6 7 5 6 6 3 4 4 4 6 9 8 5 6 6 7 7 8 6 5 5 5 5 5 6 5 8 6 7 7 5 2 4 7 3 5
10 1 3 9 3 5 6 8 7 6 6 5 5 5 6 7 8 11 6 2 6 5 4 7 8 6 6 5 4 5 5 5 7 4 4 3 2 3 3 4 7 7 6
9 4 2 9 5 2 5 6 7 7 6 4 4 4 7 11 11 6 0 16 7 11 5 6 7 7 5 4 4 5 5 5 5 5 6 6 7 6 5 6 8 7 7
4 3 1 6 7 5 6 7 7 8 7 4 4 6 8 8 8 7 -9 7 4 15 36 19 2 6 7 5 4 4 4 4 3 2 2 4 3 2 5 6 8 6 8
7 8 1 6 3 5 7 7 7 7 4 5 6 7 7 5 3 6 13 12 5 13 10 52 -17 0 12 9 9 9 6 3 0 0 -0 0 2 2 3 2 3 7 7
11 7 5 4 2 4 6 6 7 6 5 2 7 5 8 8 7 8 10 11 9 2 0 14 -1 11 6 -0 1 8 6 7 3 2 2 3 5 4 4 4 3 4 6
6 3 9 6 2 2 6 6 6 8 3 4 6 6 5 5 8 13 13 6 5 9 8 2 8 5 -6 6 20 -5 9 9 9 9 7 7 8 8 7 6 7 5 4
11 7 8 5 1 1 7 5 5 7 7 8 5 7 5 7 6 9 1 2 3 7 7 7 10 13 4 5 7 5 2 -1 2 12 10 8 7 2 5 5 8 8 3
7 9 11 4 1 1 3 10 6 8 7 8 3 8 4 4 4 5 4 4 5 12 12 6 17 15 3 14 -1 2 4 6 4 4 2 0 5 7 6 7 6 4 5
-2 7 8 3 1 3 1 9 7 5 5 7 4 -0 3 3 1 2 4 4 5 5 5 11 8 12 9 8 7 4 13 12 9 9 9 10 6 5 5 6 6 5 5
-1 3 5 5 0 3 1 7 8 5 5 5 2 2 9 2 2 1 2 2 4 6 6 10 16 7 8 8 9 7 -4 6 7 7 10 4 13 12 11 8 8 7 4
4 1 6 7 2 3 3 1 8 7 4 6 5 6 9 3 1 0 3 4 3 5 6 8 15 3 2 5 3 -3 -16 12 2 5 8 -8 15 3 8 5 3 1 5
14 7 2 5 7 -1 3 2 8 7 7 7 8 7 5 3 2 0 3 3 4 3 5 7 5 21 1 6 4 17 18 6 31 -13 -13 -3 7 8 4 16 5 12 15
7 12 11 6 4 4 5 3 6 8 6 7 7 6 3 3 2 2 2 3 3 3 4 4 5 4 3 3 5 4 3 12 29 4 15 16 9 2 3 -0 2 -1 4
10 10 10 10 6 4 4 4 4 3 8 6 7 8 3 1 2 1 3 2 2 3 2 3 4 5 5 5 5 3 5 2 -1 8 6 4 -0 6 10 6 6 25 29
12 5 4 10 11 5 4 5 6 5 5 4 5 5 2 2 2 1 -0 5 3 2 2 3 3 3 5 5 4 5 5 6 6 7 4 -1 -2 10 6 6 9 -25 -46
-9 10 8 7 8 1 9 5 7 5 5 5 5 4 5 8 4 -4 -2 4 3 4 4 2 2 3 4 3 5 5 4 4 5 6 6 7 8 5 -12 8 11 10 10
11 4 9 10 7 -2 10 7 18 5 6 6 1 7 9 11 1 7 12 -0 13 9 7 6 2 5 2 3 6 2 4 5 4 3 3 4 5 6 7 13 4 4 -13
16 21 8 10 6 20 -8 10 -2 11 4 5 2 8 0 11 -1 21 1 10 12 14 14 12 10 1 8 8 10 7 2 3 7 4 -1 4 7 6 5 13 3 7 3
8 11 9 9 12 6 -4 9 14 2 4 0 7 8 13 3 2 6 2 -3 3 14 15 12 9 13 11 6 -1 10 3 3 5 2 8 12 9 6 5 5 5 5 8
16 13 38 -6 28 -15 -8 7 15 2 -2 3 4 -4 11 5 12 -2 14 17 -1 11 6 12 13 7 11 10 10 6 5 5 11 2 0 8 5 5 7 4 8 7 6
5 11 19 19 -25 20 -1 -23 4 -31 23 -4 -36 1 26 20 3 9 15 9 6 -6 11 11 1 16 14 14 6 5 16 5 -3 3 5 3 8 10 12 7 4 6 8
-1 3 8 20 13 60 -3 -20 10 51 -11 -1 -12 43 -14 4 29 16 11 5 -5 8 9 11 10 9 7 8 12 18 13 15 11 10 10 0 3 3 3 5 6 13 -1
13 7 3 9 17 -1 5 4 15 -4 -25 25 -14 44 -39 14 -14 -11 -5 21 7 5 3 6 7 13 4 4 8 9 13 11 8 15 14 10 10 -1 7 -1 -1 7 15
Height
3152 3153 3155 3157 3159 3160 3162 3163 3165 3168 3170 3171 3173 3174 3176 3177 3178 3179 3181 3181 3183 3184 3185 3186 3187 3188 3190 3191 3192 3193 3193 3195 3196 3197 3198 3199 3199 3200 3200 3200 3200 3201 3201
3151 3153 3155 3156 3159 3160 3161 3163 3165 3167 3170 3171 3173 3175 3176 3177 3178 3180 3181 3182 3183 3185 3186 3187 3188 3189 3191 3192 3193 3194 3196 3197 3198 3199 3200 3200 3201 3202 3202 3202 3203 3203 3203
3151 3152 3154 3156 3159 3160 3161 3163 3165 3167 3169 3171 3173 3175 3176 3178 3178 3180 3181 3183 3184 3185 3186 3188 3189 3191 3192 3193 3195 3196 3198 3199 3200 3201 3202 3202 3203 3203 3204 3204 3205 3205 3205
3150 3152 3153 3156 3158 3160 3162 3163 3165 3167 3169 3171 3173 3175 3177 3178 3179 3180 3183 3184 3186 3187 3188 3189 3191 3193 3194 3195 3197 3199 3199 3201 3202 3203 3204 3205 3205 3205 3206 3206 3207 3207 3207
3148 3151 3153 3155 3158 3160 3162 3163 3165 3167 3169 3171 3173 3175 3177 3178 3179 3181 3183 3185 3187 3189 3191 3191 3192 3194 3195 3197 3199 3200 3202 3203 3203 3204 3205 3206 3207 3207 3208 3208 3208 3209 3209
3146 3150 3152 3155 3157 3159 3162 3163 3165 3167 3169 3171 3173 3174 3177 3178 3180 3182 3183 3185 3186 3188 3191 3192 3192 3194 3197 3199 3200 3202 3203 3204 3206 3206 3207 3208 3209 3209 3210 3210 3210 3211 3211
3144 3148 3151 3154 3157 3159 3161 3163 3165 3167 3169 3171 3173 3174 3176 3178 3180 3182 3183 3185 3186 3187 3190 3192 3192 3194 3195 3198 3201 3203 3204 3206 3207 3208 3209 3210 3211 3211 3212 3212 3212 3213 3213
3142 3146 3150 3153 3156 3158 3160 3163 3164 3167 3169 3171 3173 3175 3177 3178 3180 3182 3184 3185 3186 3187 3187 3187 3191 3196 3198 3198 3200 3201 3204 3207 3209 3210 3210 3211 3212 3213 3213 3214 3214 3214 3215
3140 3143 3147 3151 3154 3157 3160 3162 3164 3166 3168 3171 3174 3176 3178 3180 3181 3182 3184 3186 3187 3188 3190 3191 3194 3198 3200 3201 3202 3203 3206 3208 3210 3211 3211 3212 3213 3214 3215 3214 3215 3216 3216
3136 3140 3145 3148 3152 3155 3158 3161 3164 3166 3168 3171 3174 3176 3178 3180 3181 3183 3185 3187 3188 3190 3191 3193 3195 3198 3200 3202 3203 3206 3207 3208 3210 3211 3212 3213 3214 3215 3216 3216 3216 3217 3217
3132 3137 3141 3145 3149 3153 3156 3159 3163 3166 3168 3171 3173 3176 3178 3181 3182 3184 3186 3188 3189 3190 3192 3195 3195 3198 3200 3202 3204 3206 3208 3210 3211 3212 3213 3214 3215 3216 3216 3217 3217 3218 3218
3128 3133 3137 3142 3147 3150 3154 3157 3161 3164 3166 3170 3173 3176 3178 3181 3182 3185 3187 3189 3190 3192 3193 3195 3197 3199 3200 3202 3205 3207 3208 3210 3211 3213 3214 3215 3216 3217 3217 3218 3218 3219 3219
3125 3129 3134 3138 3143 3148 3152 3155 3158 3162 3165 3168 3171 3175 3178 3181 3184 3186 3188 3189 3191 3193 3195 3195 3197 3199 3201 3203 3205 3207 3210 3211 3212 3213 3214 3215 3216 3218 3218 3219 3219 3219 3219
3120 3126 3130 3135 3140 3145 3150 3153 3157 3159 3163 3166 3170 3174 3177 3181 3184 3186 3188 3190 3192 3194 3195 3197 3198 3200 3203 3204 3206 3208 3209 3211 3213 3214 3215 3217 3218 3218 3219 3220 3220 3220 3220
3116 3122 3127 3132 3137 3142 3146 3151 3155 3158 3162 3165 3168 3172 3176 3180 3183 3185 3188 3190 3192 3194 3195 3197 3199 3200 3202 3204 3206 3207 3208 3210 3212 3212 3215 3216 3217 3218 3219 3219 3220 3220 3219
3112 3117 3122 3127 3134 3139 3144 3148 3153 3157 3160 3164 3167 3171 3174 3178 3181 3184 3186 3189 3191 3193 3196 3198 3199 3201 3202 3204 3205 3207 3209 3210 3211 3214 3215 3216 3217 3218 3219 3219 3219 3219 3217
3108 3113 3117 3123 3128 3134 3140 3145 3149 3154 3157 3161 3165 3168 3172 3176 3179 3181 3184 3187 3189 3192 3194 3196 3198 3200 3201 3203 3204 3206 3208 3209 3211 3213 3215 3215 3216 3217 3218 3219 3219 3217 3216
3103 3108 3114 3119 3123 3129 3136 3141 3146 3150 3155 3159 3162 3166 3170 3174 3177 3180 3183 3185 3188 3190 3192 3194 3196 3198 3200 3202 3203 3205 3207 3208 3210 3211 3212 3213 3215 3216 3217 3218 3218 3218 3215
3099 3105 3110 3115 3120 3124 3130 3136 3141 3146 3151 3155 3159 3163 3167 3170 3174 3177 3180 3182 3185 3187 3190 3191 3193 3195 3197 3200 3202 3203 3205 3206 3207 3209 3210 3211 3212 3214 3214 3216 3216 3217 3216
3091 3099 3106 3110 3116 3120 3127 3131 3136 3142 3146 3151 3156 3160 3163 3166 3170 3174 3176 3179 3181 3183 3185 3188 3189 3191 3193 3196 3198 3199 3202 3204 3205 3206 3208 3209 3211 3211 3212 3213 3214 3215 3216
3083 3090 3099 3104 3111 3115 3121 3126 3131 3136 3142 3146 3151 3155 3159 3163 3167 3169 3172 3175 3177 3179 3181 3184 3186 3188 3189 3192 3194 3196 3198 3200 3201 3202 3204 3206 3208 3209 3210 3211 3212 3212 3213
3078 3086 3092 3098 3105 3111 3116 3121 3127 3133 3137 3143 3146 3150 3155 3158 3162 3166 3169 3171 3174 3176 3177 3179 3182 3184 3186 3188 3191 3193 3195 3197 3198 3198 3200 3202 3204 3205 3206 3207 3208 3208 3208
3074 3080 3084 3094 3097 3105 3111 3116 3120 3126 3132 3137 3142 3146 3150 3154 3158 3162 3165 3168 3170 3172 3175 3177 3178 3180 3182 3184 3185 3188 3190 3191 3194 3195 3196 3198 3200 3201 3201 3202 3202 3203 3203
3069 3075 3082 3087 3092 3101 3104 3108 3115 3122 3126 3131 3137 3142 3146 3150 3155 3158 3161 3164 3166 3168 3171 3173 3175 3177 3178 3180 3181 3183 3184 3187 3188 3191 3192 3193 3195 3196 3196 3197 3197 3197 3197
3065 3071 3076 3080 3086 3089 3100 3103 3105 3095 3117 3121 3124 3135 3141 3145 3149 3152 3157 3160 3162 3164 3167 3169 3170 3172 3174 3176 3177 3178 3180 3181 3183 3185 3185 3187 3189 3191 3191 3191 3191 3192 3192
3059 3065 3071 3076 3082 3086 3093 3097 3101 3109 3114 3115 3125 3127 3130 3138 3144 3146 3151 3154 3157 3160 3162 3164 3165 3167 3169 3171 3172 3173 3175 3176 3177 3178 3179 3181 3183 3185 3185 3186 3185 3185 3186